GW3616 Weather Reports


time (UTC)temp
C
wind
direction
speed
KPH
gust
KPH
rain 1hr
cm
rain 24hr
cm
rain mn
cm
humidity
%
barometer
mb
20260509102410 12 236 24.1 30.6 0.00 0.00 0.00 84 1004.4
20260509101905 12 226 17.7 29.0 0.00 0.00 0.00 85 1004.6
20260509101402 12 211 24.1 25.7 0.00 0.00 0.00 85 1004.6
20260509100900 12 219 12.9 25.7 0.00 0.00 0.00 85 1004.6
20260509100356 12 217 20.9 29.0 0.00 0.00 0.00 86 1004.7
20260509095853 12 204 14.5 22.5 0.00 0.00 0.00 87 1004.6
20260509095351 12 227 24.1 29.0 0.00 0.00 0.00 87 1004.9
20260509094847 12 230 14.5 30.6 0.00 0.00 0.00 86 1004.9
20260509094344 12 211 16.1 29.0 0.00 0.00 0.00 87 1004.8
20260509093842 12 259 14.5 30.6 0.00 0.00 0.00 87 1004.9
20260509093338 12 222 25.7 30.6 0.00 0.00 0.00 87 1005.0
20260509092837 12 216 16.1 25.7 0.00 0.00 0.00 87 1005.2
20260509092334 12 171 20.9 32.2 0.00 0.00 0.00 87 1005.2
20260509091833 12 239 22.5 29.0 0.00 0.00 0.00 87 1005.4
20260509091329 12 224 16.1 29.0 0.00 0.00 0.00 87 1005.2
20260509090827 12 228 22.5 25.7 0.00 0.00 0.00 87 1005.2
20260509090324 12 235 17.7 25.7 0.00 0.00 0.00 87 1005.1
20260509085821 12 216 20.9 25.7 0.00 0.00 0.00 87 1005.2
20260509085318 12 220 9.7 22.5 0.00 0.00 0.00 87 1005.3
20260509084814 12 222 16.1 24.1 0.00 0.00 0.00 87 1005.4
20260509084312 12 239 22.5 29.0 0.00 0.00 0.00 87 1005.5
20260509083809 12 236 12.9 16.1 0.00 0.00 0.00 86 1005.8
20260509083306 12 236 11.3 25.7 0.00 0.00 0.00 86 1005.6
20260509082803 12 223 11.3 17.7 0.00 0.00 0.00 85 1005.6
20260509082259 12 223 14.5 22.5 0.00 0.00 0.00 85 1005.6
20260509081756 13 226 11.3 17.7 0.00 0.00 0.00 85 1005.7
20260509081254 12 218 17.7 20.9 0.00 0.00 0.00 85 1005.9
20260509080752 12 204 12.9 17.7 0.00 0.00 0.00 85 1005.8
20260509080249 12 228 11.3 20.9 0.00 0.00 0.00 85 1005.9
20260509075747 12 232 14.5 17.7 0.00 0.00 0.00 85 1006.0
20260509075244 12 219 16.1 20.9 0.00 0.00 0.00 85 1006.2
20260509074741 12 226 14.5 22.5 0.00 0.00 0.00 86 1006.1
20260509074239 12 237 12.9 14.5 0.00 0.00 0.00 85 1006.0
20260509073735 12 215 14.5 20.9 0.00 0.00 0.00 85 1005.9
20260509073231 12 208 9.7 17.7 0.00 0.00 0.00 85 1006.1
20260509072728 12 163 9.7 17.7 0.00 0.00 0.00 85 1005.9
20260509072225 12 216 16.1 25.7 0.00 0.00 0.00 85 1006.5
20260509071721 12 219 16.1 30.6 0.00 0.00 0.00 85 1006.3
20260509071219 12 220 17.7 24.1 0.00 0.00 0.00 84 1006.4
20260509070715 12 215 16.1 22.5 0.00 0.00 0.00 84 1006.5
20260509070212 12 222 12.9 22.5 0.00 0.00 0.00 83 1006.7
20260509065708 12 208 12.9 24.1 0.00 0.00 0.00 83 1006.7
20260509065204 12 212 19.3 25.7 0.00 0.00 0.00 83 1006.9
20260509064701 12 203 6.4 16.1 0.00 0.00 0.00 82 1006.8
20260509064159 11 145 3.2 6.4 0.00 0.00 0.00 78 1007.0
20260509063656 10 153 3.2 4.8 0.00 0.00 0.00 74 1007.2
20260509063152 10 171 6.4 8.0 0.00 0.00 0.00 70 1006.9
20260509062649 10 122 4.8 6.4 0.00 0.00 0.00 67 1007.0
20260509062146 10 144 4.8 6.4 0.00 0.00 0.00 65 1007.2
20260509061643 10 126 4.8 6.4 0.00 0.00 0.00 64 1007.2
20260509061141 11 149 6.4 9.7 0.00 0.00 0.00 62 1007.0
20260509060638 10 164 6.4 8.0 0.00 0.00 0.00 61 1007.2
20260509060134 10 166 8.0 8.0 0.00 0.00 0.00 59 1007.4
20260509055630 10 123 4.8 9.7 0.00 0.00 0.00 58 1007.5
20260509055126 10 150 6.4 8.0 0.00 0.00 0.00 58 1007.7
20260509054623 10 171 6.4 9.7 0.00 0.00 0.00 57 1007.3
20260509054120 10 127 6.4 8.0 0.00 0.00 0.00 57 1007.5
20260509053619 10 156 4.8 8.0 0.00 0.00 0.00 57 1007.7
20260509053115 10 145 6.4 9.7 0.00 0.00 0.00 56 1007.5
20260509052613 10 154 4.8 9.7 0.00 0.00 0.00 56 1007.7
20260509052111 10 148 8.0 8.0 0.00 0.00 0.00 56 1007.8
20260509051608 10 142 4.8 6.4 0.00 0.00 0.00 55 1007.4
20260509051105 10 141 4.8 9.7 0.00 0.00 0.00 54 1007.5
20260509050602 10 117 4.8 6.4 0.00 0.00 0.00 54 1007.5
20260509050058 10 138 4.8 6.4 0.00 0.00 0.00 53 1007.3
20260509045556 10 181 6.4 12.9 0.00 0.00 0.00 53 1007.8
20260509045053 10 155 9.7 9.7 0.00 0.00 0.00 52 1007.5
20260509044550 11 146 6.4 8.0 0.00 0.00 0.00 51 1007.8
20260509044047 10 138 4.8 9.7 0.00 0.00 0.00 51 1007.8
20260509043543 10 134 4.8 6.4 0.00 0.00 0.00 50 1007.7
20260509043039 10 129 4.8 6.4 0.00 0.00 0.00 50 1007.7
20260509042535 10 120 3.2 6.4 0.00 0.00 0.00 50 1007.5
20260509042031 10 101 1.6 6.4 0.00 0.00 0.00 51 1007.5
20260509041528 10 100 1.6 4.8 0.00 0.00 0.00 50 1007.8
20260509041026 9 85 1.6 1.6 0.00 0.00 0.00 52 1008.0
20260509040524 9 78 1.6 1.6 0.00 0.00 0.00 56 1008.0
20260509040021 9 77 3.2 4.8 0.00 0.00 0.00 53 1007.9
20260509035518 9 73 0.0 1.6 0.00 0.00 0.00 52 1008.0
20260509035014 9 77 1.6 1.6 0.00 0.00 0.00 53 1008.1
20260509034513 9 76 1.6 1.6 0.00 0.00 0.00 52 1008.3
20260509034009 8 76 1.6 4.8 0.00 0.00 0.00 51 1008.3
20260509033506 8 70 0.0 1.6 0.00 0.00 0.00 52 1008.4
20260509033003 8 70 1.6 1.6 0.00 0.00 0.00 54 1008.5
20260509032500 8 71 1.6 1.6 0.00 0.00 0.00 53 1008.6
20260509031952 10 73 0.0 1.6 0.00 0.00 0.00 51 1008.5
20260509031449 10 78 1.6 1.6 0.00 0.00 0.00 50 1008.5
20260509030947 10 85 1.6 1.6 0.00 0.00 0.00 47 1008.7
20260509030445 10 86 1.6 1.6 0.00 0.00 0.00 49 1008.8
20260509025942 11 90 1.6 1.6 0.00 0.00 0.00 43 1008.8
20260509025437 11 91 1.6 1.6 0.00 0.00 0.00 42 1008.7
20260509024933 10 89 1.6 1.6 0.00 0.00 0.00 43 1008.8
20260509024429 10 85 1.6 1.6 0.00 0.00 0.00 48 1008.8
20260509023926 10 84 1.6 1.6 0.00 0.00 0.00 45 1008.8
20260509023423 10 84 1.6 1.6 0.00 0.00 0.00 43 1008.8
20260509022920 10 83 1.6 1.6 0.00 0.00 0.00 44 1009.0
20260509022417 10 83 1.6 1.6 0.00 0.00 0.00 43 1009.0
20260509021914 10 83 0.0 1.6 0.00 0.00 0.00 45 1009.0
20260509021411 10 83 0.0 0.0 0.00 0.00 0.00 44 1009.0
20260509020909 10 84 0.0 0.0 0.00 0.00 0.00 47 1009.0
20260509020407 11 85 0.0 0.0 0.00 0.00 0.00 43 1009.1
20260509015903 12 94 1.6 1.6 0.00 0.00 0.00 36 1009.0
20260509015401 12 94 0.0 1.6 0.00 0.00 0.00 36 1009.1
20260509014857 12 111 3.2 4.8 0.00 0.00 0.00 36 1009.1
20260509014355 12 116 3.2 4.8 0.00 0.00 0.00 34 1008.7
20260509013851 12 127 4.8 6.4 0.00 0.00 0.00 35 1008.8
20260509013347 12 114 3.2 4.8 0.00 0.00 0.00 34 1008.7
20260509012843 12 108 1.6 4.8 0.00 0.00 0.00 34 1008.8
20260509012340 12 94 1.6 1.6 0.00 0.00 0.00 36 1008.6
20260509011838 12 93 0.0 1.6 0.00 0.00 0.00 38 1009.0
20260509011336 12 93 0.0 0.0 0.00 0.00 0.00 36 1008.9
20260509010833 13 99 1.6 1.6 0.00 0.00 0.00 34 1008.8
20260509010331 13 113 1.6 4.8 0.00 0.00 0.00 33 1008.8
20260509005827 13 105 1.6 4.8 0.00 0.00 0.00 33 1008.7
20260509005325 13 113 1.6 4.8 0.00 0.00 0.00 32 1008.8
20260509004820 13 123 3.2 4.8 0.00 0.00 0.00 32 1008.9
20260509004316 13 117 1.6 4.8 0.00 0.00 0.00 30 1008.8
20260509003814 14 119 3.2 4.8 0.00 0.00 0.00 30 1008.7
20260509003311 14 124 4.8 6.4 0.00 0.00 0.00 32 1009.0
20260509002803 14 136 3.2 4.8 0.00 0.00 0.00 31 1009.1
20260509002301 15 119 1.6 4.8 0.00 0.00 0.00 32 1008.9
20260509001758 15 159 4.8 8.0 0.00 0.00 0.00 31 1009.0
20260509001254 15 150 4.8 8.0 0.00 0.00 0.00 30 1009.0
20260509000752 15 172 8.0 8.0 0.00 0.00 0.00 29 1009.0
20260509000248 15 146 3.2 6.4 0.00 0.00 0.00 31 1009.0
20260508235746 15 164 6.4 9.7 0.00 0.00 0.00 29 1009.2
20260508235242 16 174 4.8 6.4 0.00 0.00 0.00 30 1009.2
20260508234740 16 139 1.6 4.8 0.00 0.00 0.00 27 1009.4
20260508234235 16 176 6.4 9.7 0.00 0.00 0.00 27 1009.4
20260508233735 16 186 8.0 9.7 0.00 0.00 0.00 30 1009.5
20260508233232 16 182 3.2 8.0 0.00 0.00 0.00 30 1009.5
20260508232729 16 221 12.9 14.5 0.00 0.00 0.00 28 1009.5
20260508232226 16 229 11.3 14.5 0.00 0.00 0.00 28 1009.4
20260508231724 16 228 8.0 14.5 0.00 0.00 0.00 30 1009.6
20260508231220 16 227 11.3 17.7 0.00 0.00 0.00 30 1009.8
20260508230717 16 240 11.3 14.5 0.00 0.00 0.00 30 1009.9
20260508230213 16 229 9.7 9.7 0.00 0.00 0.00 29 1009.7
20260508225712 16 200 6.4 12.9 0.00 0.00 0.00 31 1010.1
20260508225208 16 173 6.4 12.9 0.00 0.00 0.00 29 1009.9
20260508224706 15 224 11.3 14.5 0.00 0.00 0.00 29 1010.0
20260508224203 15 250 16.1 17.7 0.00 0.00 0.00 31 1009.9
20260508223700 15 236 14.5 17.7 0.00 0.00 0.00 31 1010.1
20260508223157 15 218 12.9 17.7 0.00 0.00 0.00 31 1010.0
20260508222655 16 235 14.5 16.1 0.00 0.00 0.00 32 1010.2
20260508222152 16 236 14.5 16.1 0.00 0.00 0.00 32 1010.1
20260508221648 16 279 9.7 16.1 0.00 0.00 0.00 31 1010.2
20260508221144 15 239 14.5 17.7 0.00 0.00 0.00 34 1010.2
20260508220641 15 250 14.5 20.9 0.00 0.00 0.00 37 1010.4
20260508220137 15 277 11.3 14.5 0.00 0.00 0.00 33 1010.3
20260508215634 15 277 14.5 17.7 0.00 0.00 0.00 33 1010.3
20260508215131 15 262 9.7 17.7 0.00 0.00 0.00 32 1010.3
20260508214628 15 234 9.7 16.1 0.00 0.00 0.00 32 1010.2
20260508214125 15 257 16.1 17.7 0.00 0.00 0.00 34 1010.4
20260508213622 15 255 11.3 16.1 0.00 0.00 0.00 35 1010.2
20260508213118 15 229 12.9 16.1 0.00 0.00 0.00 36 1010.4
20260508212614 15 263 8.0 9.7 0.00 0.00 0.00 37 1010.3
20260508212111 15 256 8.0 9.7 0.00 0.00 0.00 36 1010.1
20260508211606 15 254 11.3 16.1 0.00 0.00 0.00 34 1010.3
20260508211103 15 262 16.1 16.1 0.00 0.00 0.00 32 1010.5
20260508210559 15 217 3.2 17.7 0.00 0.00 0.00 30 1010.4
20260508210057 15 282 8.0 20.9 0.00 0.00 0.00 33 1010.7
20260508205554 15 231 11.3 16.1 0.00 0.00 0.00 34 1010.7
20260508205050 15 255 16.1 17.7 0.00 0.00 0.00 33 1010.7
20260508204547 15 250 14.5 22.5 0.00 0.00 0.00 34 1010.7
20260508204042 15 207 8.0 17.7 0.00 0.00 0.00 35 1010.8
20260508203539 15 241 11.3 17.7 0.00 0.00 0.00 34 1010.8
20260508203035 15 267 16.1 17.7 0.00 0.00 0.00 35 1010.8
20260508202532 15 292 16.1 22.5 0.00 0.00 0.00 34 1010.9
20260508202029 15 231 16.1 16.1 0.00 0.00 0.00 35 1011.1
20260508201526 15 280 19.3 25.7 0.00 0.00 0.00 39 1011.1
20260508201022 15 246 14.5 20.9 0.00 0.00 0.00 36 1011.0
20260508200519 15 263 17.7 22.5 0.00 0.00 0.00 37 1011.1
20260508200015 15 219 12.9 22.5 0.00 0.00 0.00 36 1011.2
20260508195512 15 276 12.9 20.9 0.00 0.00 0.00 32 1011.4
20260508195008 15 245 11.3 20.9 0.00 0.00 0.00 33 1011.4
20260508194505 15 240 11.3 16.1 0.00 0.00 0.00 32 1011.5
20260508194002 15 260 8.0 17.7 0.00 0.00 0.00 32 1011.3
20260508193459 15 240 17.7 20.9 0.00 0.00 0.00 32 1011.7
20260508192955 15 264 17.7 22.5 0.00 0.00 0.00 36 1011.7
20260508192452 15 232 14.5 20.9 0.00 0.00 0.00 41 1011.5
20260508191949 14 260 19.3 22.5 0.00 0.00 0.00 37 1011.8
20260508191446 15 265 14.5 24.1 0.00 0.00 0.00 33 1011.8
20260508190942 14 264 12.9 22.5 0.00 0.00 0.00 34 1011.6
20260508190440 14 254 14.5 20.9 0.00 0.00 0.00 37 1011.9
20260508185936 14 269 14.5 20.9 0.00 0.00 0.00 37 1011.8
20260508185434 14 269 16.1 17.7 0.00 0.00 0.00 36 1012.0
20260508184931 15 265 11.3 17.7 0.00 0.00 0.00 41 1011.5
20260508184428 15 270 14.5 16.1 0.00 0.00 0.00 36 1011.8
20260508183925 15 257 17.7 22.5 0.00 0.00 0.00 33 1012.0
20260508183421 15 249 14.5 22.5 0.00 0.00 0.00 39 1012.0
20260508182916 15 252 11.3 20.9 0.00 0.00 0.00 33 1012.0
20260508182414 14 253 17.7 22.5 0.00 0.00 0.00 35 1011.9
20260508181909 14 259 17.7 20.9 0.00 0.00 0.00 34 1012.1
20260508181406 14 288 11.3 17.7 0.00 0.00 0.00 37 1012.3
20260508180903 14 299 19.3 22.5 0.00 0.00 0.00 33 1012.3
20260508180400 14 292 9.7 17.7 0.00 0.00 0.00 40 1012.1
20260508175856 14 249 16.1 20.9 0.00 0.00 0.00 40 1012.3
20260508175353 14 272 17.7 22.5 0.00 0.00 0.00 36 1012.0
20260508174851 15 287 12.9 22.5 0.00 0.00 0.00 34 1012.3
20260508174348 15 288 11.3 16.1 0.00 0.00 0.00 35 1012.5
20260508173839 15 289 14.5 16.1 0.00 0.00 0.00 33 1012.3
20260508173337 14 293 11.3 14.5 0.00 0.00 0.00 32 1012.4
20260508172832 14 274 17.7 22.5 0.00 0.00 0.00 37 1012.6
20260508172330 15 293 8.0 12.9 0.00 0.00 0.00 32 1012.5
20260508171826 14 270 9.7 14.5 0.00 0.00 0.00 33 1012.7
20260508171322 14 246 12.9 14.5 0.00 0.00 0.00 31 1012.8
20260508170819 14 248 12.9 22.5 0.00 0.00 0.00 31 1012.9
20260508170317 15 240 9.7 12.9 0.00 0.00 0.00 41 1012.8
20260508165814 14 250 17.7 22.5 0.00 0.00 0.00 38 1012.9
20260508165311 14 291 14.5 16.1 0.00 0.00 0.00 37 1013.0
20260508164807 14 288 16.1 17.7 0.00 0.00 0.00 36 1013.4
20260508164304 14 293 12.9 24.1 0.00 0.00 0.00 38 1013.4
20260508163802 13 234 8.0 9.7 0.00 0.00 0.00 36 1013.5
20260508163259 15 253 11.3 16.1 0.00 0.00 0.00 38 1013.6
20260508162755 14 266 12.9 24.1 0.00 0.00 0.00 42 1013.5
20260508162251 14 234 12.9 20.9 0.00 0.00 0.00 37 1013.3
20260508161749 14 238 12.9 24.1 0.00 0.00 0.00 38 1013.5
20260508161246 14 214 14.5 17.7 0.00 0.00 0.00 34 1013.4
20260508160744 14 257 11.3 17.7 0.00 0.00 0.00 35 1013.4
20260508160242 14 208 9.7 14.5 0.00 0.00 0.00 35 1013.6
20260508155738 14 251 9.7 14.5 0.00 0.00 0.00 38 1013.4
20260508155235 13 134 3.2 8.0 0.00 0.00 0.00 36 1013.6
20260508154726 13 200 6.4 9.7 0.00 0.00 0.00 41 1013.2
20260508154224 13 289 8.0 12.9 0.00 0.00 0.00 38 1013.5
20260508153720 13 269 14.5 17.7 0.00 0.00 0.00 40 1013.6
20260508153217 13 269 11.3 17.7 0.00 0.00 0.00 40 1013.5
20260508152714 14 253 11.3 17.7 0.00 0.00 0.00 44 1013.6
20260508152209 13 155 3.2 9.7 0.00 0.00 0.00 43 1013.6
20260508151706 13 277 11.3 16.1 0.00 0.00 0.00 46 1013.6
20260508151203 13 214 8.0 12.9 0.00 0.00 0.00 47 1013.7
20260508150700 13 269 8.0 12.9 0.00 0.00 0.00 44 1013.4
20260508150157 13 256 9.7 14.5 0.00 0.00 0.00 50 1013.7
20260508145652 13 240 11.3 14.5 0.00 0.00 0.00 43 1013.5
20260508145149 13 239 8.0 9.7 0.00 0.00 0.00 49 1013.8
20260508144646 13 252 8.0 12.9 0.00 0.00 0.00 37 1013.7
20260508144144 12 250 9.7 14.5 0.00 0.00 0.00 48 1013.9
20260508143641 12 252 9.7 14.5 0.00 0.00 0.00 48 1013.8
20260508143138 12 248 8.0 14.5 0.00 0.00 0.00 51 1013.8
20260508142634 12 261 6.4 14.5 0.00 0.00 0.00 47 1013.7
20260508142131 12 217 8.0 12.9 0.00 0.00 0.00 54 1013.7
20260508141628 12 218 11.3 12.9 0.00 0.00 0.00 59 1013.8
20260508141126 12 244 6.4 16.1 0.00 0.00 0.00 56 1013.8
20260508140623 12 128 3.2 12.9 0.00 0.00 0.00 59 1013.7
20260508140119 12 156 4.8 8.0 0.00 0.00 0.00 62 1014.0
20260508135614 12 195 6.4 14.5 0.00 0.00 0.00 64 1013.9
20260508135111 12 228 6.4 8.0 0.00 0.00 0.00 64 1014.1
20260508134608 11 218 6.4 8.0 0.00 0.00 0.00 65 1014.0
20260508134105 11 215 4.8 6.4 0.00 0.00 0.00 70 1014.0
20260508133601 10 155 1.6 6.4 0.00 0.00 0.00 70 1014.2
20260508133058 10 212 3.2 4.8 0.00 0.00 0.00 72 1014.1
20260508132551 10 206 4.8 6.4 0.00 0.00 0.00 74 1014.1
20260508132047 10 168 3.2 6.4 0.00 0.00 0.00 76 1014.1
20260508131542 10 154 3.2 4.8 0.00 0.00 0.00 77 1014.0
20260508131039 8 217 4.8 6.4 0.00 0.00 0.00 78 1014.2
20260508130537 8 231 4.8 9.7 0.00 0.00 0.00 80 1014.1
20260508130033 8 189 4.8 8.0 0.00 0.00 0.00 81 1014.2
20260508125528 8 150 3.2 6.4 0.00 0.00 0.00 82 1014.2
20260508125027 8 115 1.6 4.8 0.00 0.00 0.00 83 1014.5
20260508124524 7 110 1.6 4.8 0.00 0.00 0.00 83 1014.4
20260508124021 7 88 1.6 4.8 0.00 0.00 0.00 83 1014.5
20260508123520 6 85 1.6 1.6 0.00 0.00 0.00 85 1014.5
20260508123016 6 71 0.0 0.0 0.00 0.00 0.00 87 1014.6
20260508122513 6 69 0.0 0.0 0.00 0.00 0.00 92 1014.4
20260508122010 5 68 0.0 0.0 0.00 0.00 0.00 94 1014.1
20260508121508 5 65 0.0 0.0 0.00 0.00 0.00 97 1014.3
20260508121006 5 65 0.0 0.0 0.00 0.00 0.00 98 1014.1
20260508120503 4 66 0.0 0.0 0.00 0.00 0.00 99 1014.1
20260508120001 3 65 0.0 0.0 0.00 0.00 0.00 98 1014.0
20260508115459 2 65 0.0 0.0 0.00 0.00 0.00 99 1014.1
20260508114955 1 66 0.0 0.0 0.00 0.00 0.00 99 1014.2
20260508114452 1 65 0.0 0.0 0.00 0.00 0.00 99 1013.8
20260508113948 1 65 0.0 1.6 0.00 0.00 0.00 99 1013.9
20260508113446 1 65 0.0 0.0 0.00 0.00 0.00 99 1014.0
20260508112943 0 64 0.0 0.0 0.00 0.00 0.00 99 1013.7
20260508112439 0 65 0.0 0.0 0.00 0.00 0.00 98 1013.9
20260508111936 0 65 0.0 0.0 0.00 0.00 0.00 98 1013.8
20260508111433 0 65 0.0 0.0 0.00 0.00 0.00 98 1013.8
20260508110930 0 65 0.0 0.0 0.00 0.00 0.00 98 1013.9
20260508110428 0 65 0.0 0.0 0.00 0.00 0.00 98 1013.7
20260508105928 0 63 0.0 0.0 0.00 0.00 0.00 98 1013.7
20260508105424 0 62 0.0 0.0 0.00 0.00 0.00 98 1013.8
20260508104922 0 62 0.0 0.0 0.00 0.00 0.00 98 1013.7
20260508104419 0 62 0.0 0.0 0.00 0.00 0.00 98 1013.6
20260508103916 0 62 0.0 0.0 0.00 0.00 0.00 98 1013.4
20260508103413 0 62 0.0 0.0 0.00 0.00 0.00 98 1013.6
20260508102910 0 62 0.0 0.0 0.00 0.00 0.00 97 1013.5